Regional Weather Roundup
Issued by NWS New Orleans/Baton Rouge, LA

Home | Current Version | Previous Version | Graphics & Text | Print | Product List | Glossary On
Versions: 1 2 3 4 5 6 7 8 9 10 11 12 13 14 15 16 17 18 19 20 21 22 23 24 25 26 27 28 29 30 31 32 33 34 35 36 37 38 39 40 41 42 43 44 45 46 47 48 49 50
392
ASUS44 KLIX 011307
RWRLIX
NEW ORLEANS REGIONAL WEATHER ROUNDUP
NATIONAL WEATHER SERVICE NEW ORLEANS LA
800 AM CDT WED APR 01 2015

NOTE: "FAIR" INDICATES FEW OR NO CLOUDS BELOW 12,000 FEET WITH NO
      SIGNIFICANT WEATHER AND/OR OBSTRUCTIONS TO VISIBILITY.
      SKY/WX - SKY CONDITION AND SIGNIFICANT WEATHER.
      TMP - AIR TEMPERATURE.     DP    - DEWPOINT TEMPERATURE.
      RH  - RELATIVE HUMIDITY.   PRES  - PRESSURE.
      HI  - HEAT INDEX.          WCI   - WIND CHILL INDEX.

*  THESE STATIONS ARE NOT NWS OR FAA STATIONS AND ARE NOT UNDER
   NWS QUALITY CONTROL.

LAZ038-040-048-061>063-065>067-069-011400-
SOUTHEAST LOUISIANA

CITY           SKY/WX    TMP DP  RH WIND       PRES   REMARKS
N.O. AUDUBON     N/A     67  67 100 MISG        N/A
N.O. INTL ARPT PTSUNNY   67  64  90 CALM      30.06R
N.O. LAKEFRONT CLOUDY    69  64  84 SE3       30.07R
SLIDELL        FOG       60  60 100 N3        30.07R VSB 1/2
BATON ROUGE    CLOUDY    61  60  97 NE5       30.05R FOG
BOOTHVILLE     PTSUNNY   67  65  93 SE3       30.08R
BELLE CHASSE   PTSUNNY   63  62  97 CALM      30.06R FOG
BOGALUSA*      FOG       64  61  91 CALM      30.09R VSB 1/4
GALLIANO*      MOSUNNY   58  57  99 S3        30.07R
NEW ROADS*     FOG       64  63  97 CALM      30.05R VSB 1/4
GONZALES*        N/A     62  62 100 CALM      30.06R FOG
HAMMOND*       CLOUDY    63  61  94 CALM      30.08R FOG
HOUMA*         MOSUNNY   61  61 100 CALM      30.06R
PORT FOURCHON* SUNNY     72  68  88 E6        30.10R

$$

MSZ070-080>082-011400-
SOUTHERN MISSISSIPPI

CITY           SKY/WX    TMP DP  RH WIND       PRES   REMARKS
MCCOMB         CLOUDY    64  63  96 CALM      30.07R FOG
GULFPORT       MOSUNNY   66  63  90 CALM      30.08R FOG
BILOXI         MOSUNNY   66  66 100 NE5       30.09R
PASCAGOULA     MOSUNNY   64  63  96 NE3       30.11R

$$

COASTAL OBSERVATIONS
LAKE AND NEARSHORE STATIONS

STATION/POSITION TIME  TEMP    WIND        PRES    WAVE
                       AIR SEA DIR/SP/G            HT/PER
                 (UTC) (F)     (DEG/KT/KT) (MB)    (FT/S)
PASCAGOULA       1200   67      10/  4/  4 1018.0
WAVELAND YACHT   1200   66 69  250/  2/  2 1017.8
GRAND ISLE       1200   69 71  140/  2/  3 1017.4
SOUTHWEST PASS   1200   64 55   90/  4/  4 1018.4
NEW CANAL        1200   66     190/  4/  5 1017.7
SHELL BEACH      1200   67 71  150/  3/  3 1017.6

OFFSHORE STATIONS

STATION/POSITION TIME  TEMP    WIND        PRES    WAVE
                       AIR SEA DIR/SP/G            HT/PER
                 (UTC) (F)     (DEG/KT/KT) (MB)    (FT/S)
64 S DAUPHIN ISL 1250   72 71  220/  2/  2 1019.3    2/ 4

$$




USA.gov is the U.S. government's official web portal to all federal, state and local government web resources and services.